IZ3ZOD-13 Weather Reports


Display with metric or nautical units.
time (UTC)temp
F
wind
direction
speed
MPH
gust
MPH
rain 1hr
in
rain 24hr
in
rain mn
in
humidity
%
barometer
mb
20260508052003 58 2 2.0 4.0 0.00 0.00 0.00 89 1015.6
20260508051603 58 360 2.0 3.0 0.00 0.00 0.00 89 1015.5
20260508051417 58 1 2.0 3.0 0.00 0.00 0.00 89 1015.7
20260508050803 57 2 1.0 3.0 0.00 0.00 0.00 90 1015.4
20260508050616 57 360 1.0 3.0 0.00 0.00 0.00 90 1015.6
20260508050003 56 0 0.0 0.0 0.00 0.00 0.00 90 1015.4
20260508045603 56 0 0.0 0.0 0.00 0.00 0.00 91 1015.4
20260508045203 56 0 0.0 0.0 0.00 0.00 0.00 91 1015.4
20260508044803 55 0 0.0 0.0 0.00 0.00 0.00 91 1015.3
20260508044403 55 0 0.0 0.0 0.00 0.00 0.00 91 1015.3
20260508044003 55 0 0.0 0.0 0.00 0.00 0.00 92 1015.2
20260508043603 55 0 0.0 0.0 0.00 0.00 0.00 92 1015.3
20260508043416 54 0 0.0 0.0 0.00 0.00 0.00 92 1015.3
20260508042803 54 0 0.0 0.0 0.00 0.00 0.00 92 1015.0
20260508042615 54 0 0.0 0.0 0.00 0.00 0.00 92 1015.1
20260508042003 54 9 0.0 2.0 0.00 0.00 0.00 92 1015.5
20260508041603 54 8 0.0 3.0 0.00 0.00 0.00 92 1015.1
20260508041413 54 8 0.0 3.0 0.00 0.00 0.00 92 1015.3
20260508041012 54 8 1.0 3.0 0.00 0.00 0.00 92 1015.0
20260508040403 54 7 1.0 2.0 0.00 0.00 0.00 93 1015.1
20260508040216 54 5 1.0 2.0 0.00 0.00 0.00 93 1015.0
20260508035816 54 4 1.0 3.0 0.00 0.00 0.00 93 1015.0
20260508035203 54 8 1.0 3.0 0.00 0.00 0.00 93 1015.0
20260508034803 54 11 0.0 2.0 0.00 0.00 0.00 93 1015.2
20260508034403 54 7 1.0 3.0 0.00 0.00 0.00 93 1015.1
20260508034003 54 4 1.0 3.0 0.00 0.00 0.00 93 1014.9
20260508033603 54 1 1.0 3.0 0.00 0.00 0.00 93 1015.1
20260508033203 54 360 2.0 4.0 0.00 0.00 0.00 93 1014.9
20260508032803 55 2 2.0 4.0 0.00 0.00 0.00 93 1014.9
20260508032616 55 2 2.0 4.0 0.00 0.00 0.00 93 1014.9
20260508032003 55 4 1.0 3.0 0.00 0.00 0.00 93 1015.0
20260508031603 55 2 1.0 3.0 0.00 0.00 0.00 93 1015.0
20260508031203 55 6 1.0 3.0 0.00 0.00 0.00 93 1015.1
20260508030803 55 3 2.0 4.0 0.00 0.00 0.00 93 1015.0
20260508030403 55 3 3.0 4.0 0.00 0.00 0.00 94 1015.1
20260508030003 55 1 3.0 4.0 0.00 0.00 0.00 94 1014.9
20260508025816 55 1 3.0 4.0 0.00 0.00 0.00 94 1015.0
20260508025416 55 2 3.0 4.0 0.00 0.00 0.00 94 1015.1
20260508025015 55 3 2.0 4.0 0.00 0.01 0.00 94 1015.1
20260508024614 55 7 1.0 3.0 0.00 0.01 0.00 94 1015.2
20260508024003 56 353 0.0 1.0 0.00 0.01 0.00 93 1015.1
20260508023603 56 354 1.0 2.0 0.00 0.01 0.00 93 1015.4
20260508023203 56 354 1.0 2.0 0.00 0.01 0.00 93 1015.1
20260508022803 56 355 0.0 2.0 0.00 0.01 0.00 93 1015.1
20260508022616 56 355 0.0 2.0 0.00 0.01 0.00 93 1015.3
20260508022003 56 354 0.0 2.0 0.00 0.01 0.00 93 1015.4
20260508021603 56 360 0.0 1.0 0.00 0.01 0.00 93 1015.2
20260508021203 56 4 0.0 1.0 0.00 0.01 0.00 93 1015.3
20260508020803 57 3 1.0 2.0 0.00 0.01 0.00 93 1015.2
20260508020403 57 2 1.0 2.0 0.00 0.01 0.00 93 1015.3
20260508020212 57 2 1.0 2.0 0.00 0.01 0.00 93 1015.2
20260508015603 57 4 1.0 4.0 0.00 0.01 0.00 92 1015.2
20260508015203 57 3 2.0 4.0 0.00 0.01 0.00 93 1015.3
20260508014803 58 7 3.0 4.0 0.00 0.01 0.00 92 1015.1
20260508014403 58 9 3.0 6.0 0.00 0.01 0.00 92 1015.2
20260508014003 58 13 3.0 6.0 0.00 0.01 0.00 92 1015.1
20260508013603 58 17 3.0 6.0 0.00 0.01 0.00 92 1015.1
20260508013203 58 16 3.0 4.0 0.00 0.01 0.00 92 1015.2
20260508012803 58 14 3.0 4.0 0.00 0.01 0.00 92 1015.0
20260508012403 58 16 3.0 5.0 0.00 0.01 0.00 92 1015.1
20260508012216 58 19 3.0 6.0 0.00 0.01 0.00 92 1015.2
20260508011603 58 28 3.0 6.0 0.00 0.01 0.00 92 1015.0
20260508011415 58 32 3.0 6.0 0.00 0.01 0.00 92 1015.4
20260508010803 58 30 3.0 6.0 0.00 0.01 0.00 91 1015.1
20260508010403 58 23 3.0 6.0 0.00 0.01 0.00 91 1015.2
20260508010213 58 24 3.0 6.0 0.00 0.01 0.00 91 1015.1
20260508005603 58 21 2.0 4.0 0.00 0.01 0.00 91 1015.2
20260508005203 58 19 2.0 3.0 0.00 0.01 0.00 91 1015.3
20260508004803 58 18 3.0 6.0 0.00 0.01 0.00 90 1015.3
20260508004403 58 23 3.0 6.0 0.00 0.01 0.00 90 1015.4
20260508004003 58 31 3.0 4.0 0.00 0.01 0.00 90 1015.3
20260508003814 58 34 3.0 4.0 0.00 0.01 0.00 90 1015.1
20260508003203 58 36 3.0 5.0 0.00 0.01 0.00 89 1015.2
20260508002803 58 26 4.0 8.0 0.00 0.01 0.00 89 1015.4
20260508002403 58 20 5.0 8.0 0.00 0.01 0.00 89 1015.3
20260508002217 58 21 5.0 8.0 0.00 0.01 0.00 89 1015.2
20260508001603 58 33 4.0 7.0 0.00 0.01 0.00 89 1015.4
20260508001203 58 31 4.0 7.0 0.00 0.01 0.00 88 1015.5
20260508001015 58 29 4.0 7.0 0.00 0.01 0.00 88 1015.3
20260508000405 59 22 4.0 8.0 0.00 0.01 0.00 88 1015.4
20260508000214 59 22 4.0 8.0 0.00 0.01 0.00 88 1015.4
20260507235603 59 24 4.0 7.0 0.00 0.01 0.00 88 1015.4
20260507235418 59 22 4.0 7.0 0.00 0.01 0.00 88 1015.2
20260507235017 58 13 4.0 7.0 0.00 0.01 0.00 88 1015.5
20260507234403 58 11 4.0 6.0 0.00 0.01 0.00 87 1015.4
20260507234003 58 11 4.0 7.0 0.00 0.01 0.00 87 1015.5
20260507233815 58 6 3.0 7.0 0.00 0.01 0.00 87 1015.6
20260507233203 58 4 3.0 7.0 0.00 0.01 0.00 88 1015.5
20260507232803 58 5 3.0 4.0 0.00 0.01 0.00 88 1015.6
20260507232613 58 7 3.0 4.0 0.00 0.01 0.00 89 1015.5
20260507232003 58 6 2.0 4.0 0.00 0.01 0.00 89 1015.2
20260507231603 58 6 2.0 4.0 0.00 0.01 0.00 89 1015.5
20260507231203 58 2 1.0 3.0 0.00 0.01 0.00 89 1015.5
20260507230803 58 1 2.0 4.0 0.00 0.01 0.00 89 1015.5
20260507230615 58 1 2.0 4.0 0.00 0.01 0.00 89 1015.5
20260507230003 58 6 2.0 4.0 0.00 0.01 0.00 89 1015.5
20260507225603 58 4 2.0 4.0 0.00 0.01 0.00 88 1015.2
20260507225413 58 3 2.0 4.0 0.00 0.01 0.00 88 1015.2
20260507224803 58 5 2.0 3.0 0.00 0.01 0.00 87 1015.3
20260507224403 58 10 2.0 3.0 0.00 0.01 0.00 87 1015.3
20260507224003 58 14 2.0 3.0 0.00 0.01 0.00 87 1015.2
20260507223603 58 13 1.0 2.0 0.00 0.01 0.00 87 1015.5
20260507223203 58 5 1.0 2.0 0.00 0.01 0.00 87 1015.4
20260507222803 58 5 1.0 2.0 0.00 0.01 0.00 86 1015.4
20260507222614 58 6 1.0 3.0 0.00 0.01 0.00 86 1015.3
20260507222003 59 10 2.0 3.0 0.00 0.01 0.00 85 1015.3
20260507221603 58 12 2.0 3.0 0.00 0.01 0.00 86 1015.4
20260507221203 58 12 1.0 2.0 0.00 0.01 0.00 85 1015.1
20260507220803 59 7 2.0 3.0 0.00 0.01 0.00 85 1015.0
20260507220403 59 10 2.0 4.0 0.00 0.01 0.00 84 1015.1
20260507220004 59 11 2.0 4.0 0.00 0.01 0.00 84 1015.2
20260507215603 59 15 2.0 4.0 0.00 0.01 0.01 83 1015.2
20260507215414 59 17 2.0 4.0 0.00 0.01 0.01 83 1015.2
20260507214803 60 26 2.0 4.0 0.00 0.01 0.01 83 1015.2
20260507214403 59 27 1.0 3.0 0.00 0.01 0.01 83 1015.1
20260507214003 59 20 1.0 2.0 0.00 0.01 0.01 83 1015.2
20260507213603 59 24 1.0 6.0 0.00 0.01 0.01 82 1015.3
20260507213203 59 25 2.0 6.0 0.00 0.01 0.01 82 1015.1
20260507212804 59 28 1.0 6.0 0.00 0.01 0.01 83 1015.0
20260507212403 59 25 1.0 2.0 0.00 0.01 0.01 83 1015.0
20260507212003 59 18 1.0 2.0 0.00 0.01 0.01 83 1015.1
20260507211813 59 14 1.0 2.0 0.00 0.01 0.01 83 1014.9
20260507211203 59 12 1.0 3.0 0.00 0.01 0.01 83 1015.1
20260507210803 59 10 1.0 2.0 0.00 0.01 0.01 83 1015.2
20260507210403 59 2 2.0 4.0 0.00 0.01 0.01 83 1015.0
20260507210003 59 3 3.0 6.0 0.00 0.01 0.01 83 1015.1
20260507205603 58 6 3.0 6.0 0.00 0.01 0.01 84 1015.1
20260507205203 58 8 2.0 6.0 0.00 0.01 0.01 84 1015.0
20260507205014 58 12 1.0 4.0 0.00 0.01 0.01 83 1015.1
20260507204403 59 0 0.0 0.0 0.00 0.01 0.01 82 1014.8
20260507204212 59 0 0.0 0.0 0.00 0.01 0.01 82 1014.8
20260507203603 60 0 0.0 0.0 0.00 0.01 0.01 80 1014.8
20260507203203 60 0 0.0 0.0 0.00 0.01 0.01 80 1014.9
20260507203016 60 0 0.0 0.0 0.00 0.01 0.01 80 1014.9
20260507202403 60 0 0.0 0.0 0.00 0.01 0.01 80 1014.9
20260507202004 60 0 0.0 0.0 0.00 0.01 0.01 80 1014.6
20260507201603 60 0 0.0 0.0 0.00 0.01 0.01 79 1014.7
20260507201203 60 77 0.0 0.0 0.00 0.01 0.01 79 1014.8
20260507200803 61 78 0.0 2.0 0.00 0.01 0.01 78 1014.6
20260507200617 61 81 1.0 2.0 0.00 0.01 0.01 78 1014.5
20260507200003 61 78 1.0 3.0 0.00 0.01 0.01 78 1014.6
20260507195603 61 77 1.0 3.0 0.00 0.01 0.01 78 1014.6
20260507195203 61 86 1.0 2.0 0.00 0.01 0.01 78 1014.5
20260507194803 62 78 1.0 2.0 0.00 0.01 0.01 77 1014.5
20260507194403 62 76 1.0 2.0 0.00 0.01 0.01 77 1014.5
20260507194003 62 69 1.0 2.0 0.00 0.01 0.01 77 1014.4
20260507193603 62 84 0.0 2.0 0.00 0.01 0.01 76 1014.4
20260507193417 62 84 0.0 2.0 0.00 0.01 0.01 76 1014.3
20260507193016 62 83 0.0 2.0 0.00 0.01 0.01 75 1014.4
20260507192403 63 81 1.0 2.0 0.00 0.01 0.01 74 1014.5
20260507192003 63 76 2.0 3.0 0.00 0.01 0.01 73 1014.3
20260507191603 63 74 1.0 3.0 0.00 0.01 0.01 73 1014.1
20260507191414 64 77 1.0 3.0 0.00 0.01 0.01 73 1014.1
20260507191013 64 83 1.0 4.0 0.00 0.01 0.01 72 1013.9
20260507190403 64 79 2.0 4.0 0.00 0.01 0.01 71 1013.9
20260507190004 65 71 3.0 4.0 0.00 0.01 0.01 70 1013.7
20260507185603 65 59 3.0 6.0 0.00 0.01 0.01 70 1013.6
20260507185203 65 63 3.0 6.0 0.00 0.01 0.01 69 1013.7
20260507184803 65 67 2.0 4.0 0.00 0.01 0.01 68 1013.5
20260507184614 65 71 2.0 4.0 0.00 0.01 0.01 67 1013.6
20260507184214 65 59 2.0 4.0 0.00 0.01 0.01 66 1013.6
20260507183813 65 58 2.0 3.0 0.00 0.01 0.01 66 1013.6
20260507183203 66 53 1.0 2.0 0.00 0.01 0.01 66 1013.5
20260507182803 66 42 1.0 3.0 0.00 0.01 0.01 65 1013.3
20260507182616 66 39 1.0 3.0 0.00 0.01 0.01 65 1013.3
20260507182003 67 76 0.0 2.0 0.00 0.01 0.01 64 1013.3
20260507181603 67 130 1.0 4.0 0.00 0.01 0.01 63 1013.2
20260507181203 67 102 2.0 8.0 0.00 0.01 0.01 62 1013.3
20260507180803 67 73 3.0 8.0 0.00 0.01 0.01 63 1013.1
20260507180403 67 50 3.0 8.0 0.00 0.01 0.01 66 1013.0
20260507180003 68 39 2.0 4.0 0.00 0.01 0.01 66 1012.9
20260507175603 69 42 3.0 6.0 0.00 0.01 0.01 64 1012.8
20260507175203 69 46 3.0 6.0 0.00 0.01 0.01 63 1012.7
20260507174803 70 48 2.0 3.0 0.00 0.01 0.01 60 1012.7
20260507174403 70 57 2.0 2.0 0.00 0.01 0.01 59 1012.6
20260507174003 71 89 1.0 2.0 0.00 0.01 0.01 54 1012.6
20260507173603 71 160 1.0 3.0 0.00 0.01 0.01 52 1012.6
20260507173203 72 199 2.0 4.0 0.00 0.01 0.01 49 1012.5
20260507172803 72 204 3.0 6.0 0.00 0.01 0.01 48 1012.5
20260507172617 72 204 3.0 6.0 0.00 0.01 0.01 48 1012.4
20260507172003 72 208 3.0 4.0 0.00 0.01 0.01 48 1012.4
20260507171603 72 207 3.0 6.0 0.00 0.01 0.01 49 1012.2
20260507171203 72 216 3.0 6.0 0.00 0.01 0.01 47 1012.4
20260507170803 72 221 3.0 6.0 0.00 0.01 0.01 46 1012.4
20260507170403 72 227 3.0 6.0 0.00 0.01 0.01 47 1012.1
20260507170213 72 226 4.0 9.0 0.00 0.01 0.01 48 1012.3
20260507165603 72 226 4.0 9.0 0.00 0.01 0.01 46 1012.3
20260507165417 73 227 4.0 9.0 0.00 0.01 0.01 45 1012.2
20260507164803 73 238 3.0 6.0 0.00 0.01 0.01 47 1012.3
20260507164403 73 236 4.0 7.0 0.00 0.01 0.01 45 1012.4
20260507164215 73 228 4.0 7.0 0.00 0.01 0.01 44 1012.3
20260507163603 73 205 4.0 8.0 0.00 0.01 0.01 45 1012.3
20260507163414 73 191 4.0 8.0 0.00 0.01 0.01 45 1012.4
20260507162803 73 177 4.0 9.0 0.00 0.01 0.01 47 1012.2
20260507162403 73 184 4.0 9.0 0.00 0.01 0.01 47 1012.3
20260507162003 73 193 5.0 9.0 0.00 0.01 0.01 47 1012.2
20260507161816 73 198 5.0 7.0 0.00 0.01 0.01 48 1012.3
20260507161203 72 210 5.0 9.0 0.00 0.01 0.01 47 1012.4
20260507160803 73 196 5.0 9.0 0.00 0.01 0.01 46 1012.3
20260507160614 73 194 5.0 9.0 0.00 0.01 0.01 46 1012.2
20260507160214 73 199 5.0 9.0 0.00 0.01 0.01 47 1012.2
20260507155603 73 204 6.0 9.0 0.00 0.01 0.01 46 1012.3
20260507155203 73 196 6.0 11.0 0.00 0.01 0.01 46 1012.4
20260507154803 74 191 6.0 11.0 0.00 0.01 0.01 47 1012.4
20260507154403 74 198 6.0 11.0 0.00 0.01 0.01 47 1012.2
20260507154003 74 214 5.0 10.0 0.00 0.01 0.01 45 1012.3
20260507153603 74 230 5.0 9.0 0.00 0.01 0.01 46 1012.2
20260507153203 73 237 3.0 9.0 0.00 0.01 0.01 46 1012.2
20260507152803 72 222 3.0 9.0 0.00 0.01 0.01 47 1012.3
20260507152403 72 200 4.0 8.0 0.00 0.01 0.01 48 1012.2
20260507152004 73 193 6.0 11.0 0.00 0.01 0.01 50 1012.2
20260507151603 73 198 7.0 11.0 0.00 0.01 0.01 46 1012.0
20260507151203 73 202 6.0 9.0 0.00 0.01 0.01 47 1012.2
20260507151016 74 203 6.0 10.0 0.00 0.01 0.01 46 1012.2
20260507150403 74 200 5.0 10.0 0.00 0.01 0.01 46 1012.1
20260507150003 74 208 5.0 9.0 0.00 0.01 0.01 45 1012.1
20260507145603 74 202 6.0 10.0 0.00 0.01 0.01 46 1012.1
20260507145203 74 205 6.0 10.0 0.00 0.01 0.01 45 1012.4
20260507145013 74 209 6.0 10.0 0.00 0.01 0.01 48 1012.5
20260507144403 74 209 5.0 10.0 0.00 0.01 0.01 44 1012.2
20260507144003 74 204 4.0 10.0 0.00 0.01 0.01 47 1012.4
20260507143603 73 211 5.0 8.0 0.00 0.01 0.01 47 1012.1
20260507143203 72 209 5.0 10.0 0.00 0.01 0.01 46 1012.4
20260507142803 73 210 5.0 10.0 0.00 0.01 0.01 45 1012.3
20260507142403 74 220 5.0 10.0 0.00 0.01 0.01 44 1012.5
20260507142003 74 202 6.0 10.0 0.00 0.01 0.01 44 1012.4
20260507141603 74 195 5.0 10.0 0.00 0.01 0.01 48 1012.2
20260507141203 74 194 3.0 9.0 0.00 0.01 0.01 45 1012.4
20260507140803 73 215 3.0 5.0 0.00 0.01 0.01 48 1012.4
20260507140403 72 211 3.0 5.0 0.00 0.01 0.01 47 1012.4
20260507140004 72 211 4.0 7.0 0.00 0.01 0.01 49 1012.5
20260507135603 72 200 6.0 11.0 0.00 0.01 0.01 47 1012.4
20260507135203 73 182 6.0 11.0 0.00 0.01 0.01 51 1012.6
20260507134803 74 189 5.0 11.0 0.00 0.01 0.01 49 1012.6
20260507134403 74 216 3.0 8.0 0.00 0.01 0.01 49 1012.5
20260507134003 72 250 4.0 6.0 0.00 0.01 0.01 49 1012.6
20260507133603 72 239 5.0 9.0 0.00 0.01 0.01 49 1012.6
20260507133203 74 227 6.0 9.0 0.00 0.01 0.01 47 1012.6
20260507132803 74 208 6.0 13.0 0.00 0.01 0.01 46 1012.7
20260507132403 75 215 5.0 13.0 0.00 0.01 0.01 47 1012.7
20260507132003 75 239 4.0 8.0 0.00 0.01 0.01 48 1012.4
20260507131603 74 251 4.0 8.0 0.00 0.01 0.01 47 1012.6
20260507131203 73 248 4.0 8.0 0.00 0.01 0.01 48 1012.5
20260507130803 71 246 4.0 7.0 0.00 0.01 0.01 52 1012.6
20260507130403 71 236 5.0 7.0 0.00 0.01 0.01 52 1012.7
20260507130003 72 229 5.0 10.0 0.00 0.01 0.01 50 1012.5
20260507125603 73 214 6.0 10.0 0.00 0.04 0.01 49 1012.7
20260507125203 74 217 6.0 10.0 0.00 0.08 0.01 49 1012.6
20260507124803 74 208 6.0 9.0 0.00 0.15 0.01 51 1012.7
20260507124403 73 209 6.0 11.0 0.00 0.24 0.01 49 1012.6
20260507124003 74 202 5.0 11.0 0.00 0.30 0.01 47 1012.6
20260507123603 73 211 6.0 11.0 0.00 0.32 0.01 51 1012.6
20260507123203 73 205 6.0 10.0 0.00 0.36 0.01 53 1012.4
20260507122803 73 206 5.0 10.0 0.00 0.37 0.01 49 1012.6
20260507122615 73 202 5.0 11.0 0.00 0.37 0.01 53 1012.7
20260507122214 73 208 6.0 11.0 0.00 0.38 0.01 52 1012.6
20260507121603 73 203 6.0 13.0 0.00 0.38 0.01 54 1012.9
20260507121203 73 200 6.0 13.0 0.00 0.38 0.01 55 1012.6
20260507120803 74 201 5.0 11.0 0.00 0.38 0.01 50 1012.8
20260507120403 73 197 6.0 10.0 0.00 0.38 0.01 54 1012.7
20260507120004 72 213 6.0 14.0 0.00 0.38 0.01 55 1012.9
20260507115603 72 214 7.0 14.0 0.00 0.38 0.01 55 1012.9
20260507115415 72 209 7.0 14.0 0.00 0.38 0.01 54 1012.8
20260507114803 72 209 6.0 9.0 0.00 0.38 0.01 52 1012.7
20260507114403 71 217 6.0 14.0 0.00 0.38 0.01 54 1012.7
20260507114003 72 224 6.0 14.0 0.00 0.38 0.01 52 1012.9
20260507113603 71 237 6.0 11.0 0.00 0.38 0.01 55 1012.9
20260507113417 71 235 7.0 11.0 0.00 0.38 0.01 54 1012.8
20260507112803 71 221 5.0 11.0 0.00 0.38 0.01 55 1012.8
20260507112403 71 221 4.0 10.0 0.00 0.38 0.01 56 1012.9
20260507112003 71 219 5.0 9.0 0.00 0.38 0.01 54 1013.1
20260507111814 71 214 5.0 9.0 0.00 0.38 0.01 57 1013.0
20260507111203 71 211 6.0 13.0 0.00 0.38 0.01 54 1013.2
20260507110803 71 219 5.0 13.0 0.00 0.38 0.01 54 1013.2
20260507110403 71 218 4.0 8.0 0.00 0.38 0.01 59 1013.2
20260507110003 70 201 5.0 10.0 0.00 0.38 0.01 59 1013.1
20260507105603 70 200 5.0 10.0 0.00 0.38 0.01 59 1013.4
20260507105203 70 202 5.0 10.0 0.00 0.38 0.01 58 1013.4
20260507104803 70 228 5.0 13.0 0.00 0.38 0.01 61 1013.5
20260507104403 70 243 4.0 13.0 0.00 0.38 0.01 61 1013.6
20260507104003 69 211 5.0 13.0 0.00 0.38 0.01 60 1013.5
20260507103603 70 194 4.0 8.0 0.00 0.38 0.01 63 1013.6
20260507103203 70 225 4.0 6.0 0.00 0.38 0.01 62 1013.6
20260507102803 70 239 5.0 10.0 0.00 0.38 0.01 60 1013.6
20260507102403 69 245 6.0 10.0 0.00 0.38 0.01 62 1013.7
20260507102003 69 240 7.0 13.0 0.00 0.38 0.01 64 1013.8
20260507101603 70 225 7.0 13.0 0.00 0.38 0.01 60 1013.8
20260507101204 70 222 5.0 13.0 0.00 0.38 0.01 61 1013.8
20260507100803 70 210 4.0 9.0 0.00 0.38 0.01 61 1013.7
20260507100403 70 209 4.0 9.0 0.00 0.38 0.01 61 1013.7
20260507095816 69 221 5.0 8.0 0.00 0.38 0.01 60 1013.9
20260507095203 69 221 6.0 10.0 0.00 0.38 0.01 60 1013.7
20260507094803 69 215 5.0 10.0 0.00 0.38 0.01 56 1013.9
20260507094403 70 225 5.0 10.0 0.00 0.38 0.01 57 1013.8
20260507094003 70 226 4.0 8.0 0.00 0.38 0.01 57 1013.7
20260507093812 70 219 4.0 8.0 0.00 0.38 0.01 55 1013.7
20260507093203 69 229 4.0 9.0 0.00 0.38 0.01 57 1013.6
20260507092803 70 243 2.0 9.0 0.00 0.38 0.01 56 1013.6
20260507092403 69 261 1.0 6.0 0.00 0.38 0.01 61 1013.6
20260507092003 69 245 3.0 10.0 0.00 0.39 0.01 63 1013.7
20260507091603 68 225 4.0 10.0 0.00 0.39 0.01 63 1013.4
20260507091203 69 220 3.0 9.0 0.00 0.39 0.01 67 1013.6
20260507090803 69 229 2.0 7.0 0.00 0.40 0.01 67 1013.4
20260507090403 69 226 3.0 6.0 0.00 0.40 0.01 65 1013.7
20260507090004 68 180 3.0 6.0 0.00 0.41 0.01 67 1013.7
20260507085603 67 175 3.0 7.0 0.00 0.41 0.01 76 1013.6
20260507085203 66 191 3.0 7.0 0.00 0.41 0.01 74 1013.6
20260507084803 65 206 3.0 7.0 0.00 0.41 0.01 76 1013.5
20260507084403 65 170 3.0 7.0 0.00 0.41 0.01 79 1013.5
20260507084003 66 157 3.0 7.0 0.00 0.41 0.01 77 1013.5
20260507083603 66 172 4.0 9.0 0.00 0.41 0.01 77 1013.5
20260507083413 66 167 4.0 9.0 0.00 0.41 0.01 78 1013.5
20260507082803 66 159 4.0 9.0 0.00 0.41 0.01 80 1013.5
20260507082403 66 149 3.0 8.0 0.00 0.41 0.01 78 1013.4
20260507082216 66 157 2.0 6.0 0.00 0.41 0.01 78 1013.3
20260507081603 65 179 2.0 6.0 0.00 0.41 0.01 79 1013.3
20260507081203 65 200 2.0 4.0 0.00 0.41 0.01 79 1013.3
20260507081014 65 218 2.0 3.0 0.00 0.41 0.01 80 1013.5
20260507080403 65 224 2.0 4.0 0.00 0.41 0.01 74 1013.5
20260507080004 68 202 2.0 4.0 0.00 0.41 0.01 74 1013.3
20260507075817 68 183 1.0 4.0 0.00 0.41 0.01 76 1013.6
20260507075203 67 108 1.0 4.0 0.00 0.41 0.01 76 1013.3
20260507074803 66 110 1.0 2.0 0.00 0.41 0.01 77 1013.4
20260507074403 66 119 1.0 2.0 0.00 0.41 0.01 79 1013.4
20260507074003 65 138 1.0 2.0 0.00 0.41 0.01 78 1013.3
20260507073603 65 151 0.0 2.0 0.00 0.41 0.01 80 1013.3
20260507073203 64 253 0.0 1.0 0.00 0.41 0.01 82 1013.3
20260507072803 63 256 0.0 1.0 0.00 0.41 0.01 85 1013.3
20260507072403 63 254 0.0 1.0 0.00 0.41 0.01 85 1013.2
20260507072216 63 253 1.0 2.0 0.00 0.41 0.01 85 1013.2
20260507071604 63 253 1.0 3.0 0.00 0.41 0.01 85 1013.3
20260507071203 63 291 1.0 3.0 0.00 0.41 0.01 85 1013.3
20260507070803 63 325 1.0 2.0 0.00 0.41 0.01 87 1013.2
20260507070403 62 304 1.0 2.0 0.00 0.41 0.01 87 1013.2
20260507070004 62 276 0.0 1.0 0.00 0.41 0.01 87 1013.1
20260507065818 62 274 0.0 1.0 0.00 0.41 0.01 88 1013.1
20260507065203 62 269 1.0 2.0 0.00 0.41 0.01 90 1013.0
20260507065016 62 267 1.0 2.0 0.00 0.41 0.01 91 1013.1
20260507064403 62 259 1.0 2.0 0.00 0.41 0.01 90 1013.0
20260507064003 63 253 0.0 2.0 0.00 0.41 0.01 91 1012.9
20260507063603 62 0 0.0 0.0 0.00 0.42 0.01 95 1013.0
20260507063203 61 270 0.0 2.0 0.00 0.42 0.01 96 1012.8
20260507062803 60 251 0.0 2.0 0.00 0.42 0.01 97 1012.8
20260507062403 59 248 1.0 3.0 0.00 0.42 0.01 96 1012.8
20260507062003 59 243 2.0 3.0 0.00 0.42 0.01 96 1012.9
20260507061816 60 244 2.0 3.0 0.00 0.42 0.01 96 1012.9
20260507061203 59 252 3.0 4.0 0.00 0.42 0.01 97 1013.0
20260507060803 59 258 3.0 4.0 0.00 0.42 0.01 97 1012.8
20260507060403 59 259 3.0 4.0 0.00 0.42 0.01 97 1012.8
20260507060214 59 258 3.0 4.0 0.00 0.42 0.01 97 1012.9
20260507055603 60 266 1.0 4.0 0.00 0.42 0.01 97 1012.8
20260507055203 60 278 0.0 2.0 0.00 0.42 0.01 97 1012.9
20260507055017 60 285 0.0 1.0 0.00 0.42 0.01 98 1012.7
20260507054616 60 286 0.0 1.0 0.00 0.42 0.01 97 1012.7
20260507054004 60 286 0.0 1.0 0.00 0.42 0.01 98 1012.6
20260507053815 60 286 0.0 1.0 0.00 0.42 0.01 98 1012.4
20260507053204 59 0 0.0 0.0 0.00 0.42 0.01 98 1012.4
20260507053014 59 0 0.0 0.0 0.00 0.42 0.01 98 1012.3